(293328) = 1995 UN64 = 2007 DT65

Discovered at Socorro on 2007-02-21 by LINEAR.

Orbit

Orbit type: Main Belt

Note: WebGL enabled browser required.

epoch2024-03-31.0
epoch JD2460400.5
perihelion date2024-01-20.49942
perihelion JD2460329.99942
argument of perihelion (°)30.43073
ascending node (°)106.41876
inclination (°)3.12033
eccentricity0.1053670
perihelion distance (AU)2.0297632
Tisserand w.r.t. Jupiter3.6
ΔV w.r.t. Earth (km/sec)8.9
semimajor axis (AU)2.2688223
mean anomaly (°)20.33273
mean daily motion (°/day)0.28840520
aphelion distance (AU)2.508
period (years)3.42
P-vector [x]-0.72883931
P-vector [y]0.61670974
P-vector [z]0.29742622
Q-vector [x]-0.68269101
Q-vector [y]-0.68769583
Q-vector [z]-0.24699681
absolute magnitude17.71
phase slope0.15
uncertainty0
referenceMPEC 2024-D82
observations used278
oppositions13
arc length (days)10348
first opposition used1995
last opposition used2024
residual rms (arc-secs)0.82
perturbers coarse indicatorM-v
perturbers precise indicator003Ek
first observation date used1995-10-21.0
last observation date used2024-02-19.0
computer nameMPCLINUX
JD of orbit computation2456937.194267
perihelion JD uncertainty (days)1.4583E-04
argument of perihelion uncertainty (°)1.6382E-04
ascending node uncertainty (°)1.5826E-04
inclination uncertainty (°)3.3975E-06
eccentricity uncertainty 5.1116E-08
perihelion distance uncertainty (AU)1.1238E-07
Minimum Orbit Intersection Distances (in AU)
for orbit epoch: 2460400.5, reference: E2024-GF4
Mercury1.6794
Venus1.31162
Earth1.04471
Mars0.36916
Jupiter2.50574
Saturn6.90417
Uranus16.378
Neptune27.4518

Observations

283 total observations over interval: 1995 10 21.38393 – 2024 02 19.197775
These data are available for download (format description).

Date (UT) J2000 RA J2000 Dec Magn Location Ref
1995 10 21.38393 02 02 41.21 +06 47 41.5 21.3 V 691 – Steward Observatory, Kitt Peak-Spacewatch MPS 32166
1995 10 21.40498 02 02 39.86 +06 47 34.8 21.3 V 691 – Steward Observatory, Kitt Peak-Spacewatch MPS 32166
1995 10 21.42801 02 02 38.45 +06 47 27.5 21.3 V 691 – Steward Observatory, Kitt Peak-Spacewatch MPS 32166
1995 10 26.37742 01 57 37.05 +06 21 27.6   691 – Steward Observatory, Kitt Peak-Spacewatch MPS 32166
1995 10 26.39837 01 57 35.67 +06 21 20.3   691 – Steward Observatory, Kitt Peak-Spacewatch MPS 32166
1995 10 26.43083 01 57 33.67 +06 21 10.5 20.7 V 691 – Steward Observatory, Kitt Peak-Spacewatch MPS 32166
2004 06 17.16405 15 13 44.71 -14 28 18.8 21.3 V 691 – Steward Observatory, Kitt Peak-Spacewatch MPS 203200
2004 06 17.19181 15 13 43.90 -14 28 19.9 21.6 V 691 – Steward Observatory, Kitt Peak-Spacewatch MPS 203200
2004 06 17.21884 15 13 43.04 -14 28 20.6 21.2 V 691 – Steward Observatory, Kitt Peak-Spacewatch MPS 203200
2005 09 13.37623 00 04 50.19 -04 50 53.4 20.8 V 691 – Steward Observatory, Kitt Peak-Spacewatch MPS 203200
2005 09 13.39369 00 04 49.20 -04 51 00.7 20.5 V 691 – Steward Observatory, Kitt Peak-Spacewatch MPS 203200
2005 09 13.41117 00 04 48.21 -04 51 07.6 21.0 V 691 – Steward Observatory, Kitt Peak-Spacewatch MPS 203200
2007 01 28.45057 11 31 09.44 +07 11 20.4 20.6 V G96 – Mt. Lemmon Survey MPS 203200
2007 01 28.45939 11 31 09.40 +07 11 22.2 20.6 V G96 – Mt. Lemmon Survey MPS 203200
2007 01 28.46824 11 31 09.33 +07 11 24.3 20.6 V G96 – Mt. Lemmon Survey MPS 203200
2007 01 28.47712 11 31 09.26 +07 11 26.2 20.6 V G96 – Mt. Lemmon Survey MPS 203200
2007 02 21.30171 11 19 49.69 +09 30 22.0 19.4   704 – Lincoln Laboratory ETS, New Mexico MPS 201643
2007 02 21.31360 11 19 49.10 +09 30 26.2 19.5   704 – Lincoln Laboratory ETS, New Mexico MPS 201643
2007 02 21.33743 11 19 47.89 +09 30 36.5 19.8   704 – Lincoln Laboratory ETS, New Mexico MPS 201643
2007 02 25.31127 11 16 27.55 +10 00 03.1 19.8 V G96 – Mt. Lemmon Survey MPS 201643
2007 02 25.31832 11 16 27.12 +10 00 06.5 19.2 V G96 – Mt. Lemmon Survey MPS 201643
2007 02 25.32545 11 16 26.79 +10 00 08.9 19.2 V G96 – Mt. Lemmon Survey MPS 201643
2007 02 25.33250 11 16 26.36 +10 00 12.4 19.7 V G96 – Mt. Lemmon Survey MPS 201643
2007 03 09.23014 11 05 28.89 +11 25 48.0 19.6 V 703 – Catalina Sky Survey MPS 203200
2007 03 09.23826 11 05 28.42 +11 25 51.2 19.9 V 703 – Catalina Sky Survey MPS 203200
2007 03 09.24640 11 05 28.03 +11 25 54.1 19.7 V 703 – Catalina Sky Survey MPS 203200
2007 03 09.25447 11 05 27.52 +11 25 56.3 19.8 V 703 – Catalina Sky Survey MPS 203200
2007 03 09.32749 11 05 23.33 +11 26 27.2 20.1 R 644 – Palomar Mountain/NEAT MPS 203200
2007 03 09.34900 11 05 22.07 +11 26 35.7 19.6 R 644 – Palomar Mountain/NEAT MPS 203200
2007 03 09.36931 11 05 20.89 +11 26 44.0 19.7 R 644 – Palomar Mountain/NEAT MPS 203200
2007 03 10.30313 11 04 28.91 +11 32 53.9 19.4 R 644 – Palomar Mountain/NEAT MPS 203200
2007 03 10.32349 11 04 27.74 +11 33 02.0 19.7 R 644 – Palomar Mountain/NEAT MPS 203200
2007 03 10.34512 11 04 26.49 +11 33 10.3 20.0 R 644 – Palomar Mountain/NEAT MPS 203200
2009 11 24.40423 05 45 29.09 +20 31 46.9 20.8 V 691 – Steward Observatory, Kitt Peak-Spacewatch MPS 304986
2009 11 24.42202 05 45 28.15 +20 31 47.1 20.3 V 691 – Steward Observatory, Kitt Peak-Spacewatch MPS 304986
2009 11 24.43981 05 45 27.32 +20 31 48.0 20.2 V 691 – Steward Observatory, Kitt Peak-Spacewatch MPS 304986
2009 12 10.38322 05 29 34.26 +20 43 05.0 19.4 V G96 – Mt. Lemmon Survey MPS 307336
2009 12 10.38963 05 29 33.79 +20 43 05.6 19.3 V G96 – Mt. Lemmon Survey MPS 307336
2009 12 10.39606 05 29 33.36 +20 43 05.7 19.4 V G96 – Mt. Lemmon Survey MPS 307336
2009 12 10.40264 05 29 32.89 +20 43 05.9 19.5 V G96 – Mt. Lemmon Survey MPS 307336
2010 01 15.28778 04 56 25.80 +21 22 04.8 19.5 V G96 – Mt. Lemmon Survey MPS 311199
2010 01 15.29612 04 56 25.62 +21 22 04.6 18.7 V G96 – Mt. Lemmon Survey MPS 311199
2010 01 15.30458 04 56 25.33 +21 22 07.0 18.9 V G96 – Mt. Lemmon Survey MPS 311199
2010 01 15.31301 04 56 25.15 +21 22 06.8 19.0 V G96 – Mt. Lemmon Survey MPS 311199
2010 02 13.19380 05 00 45.10 +22 26 46.5 21.0 V G96 – Mt. Lemmon Survey MPS 313337
2010 02 13.20142 05 00 45.39 +22 26 47.2 21.4 V G96 – Mt. Lemmon Survey MPS 313337
2010 02 13.20921 05 00 45.72 +22 26 48.6 21.1 V G96 – Mt. Lemmon Survey MPS 313337
2010 03 06.678981 05 22 16.14 +23 23 46.1   C51 – WISE MPS 334983
2010 03 06.81129 05 22 26.49 +23 24 11.0   C51 – WISE MPS 316770
2010 03 06.943590 05 22 36.66 +23 24 23.3   C51 – WISE MPS 316770
2010 03 07.075894 05 22 46.84 +23 24 43.8   C51 – WISE MPS 316770
2010 03 07.076021 05 22 46.79 +23 24 43.1   C51 – WISE MPS 372045
2010 03 07.208325 05 22 57.20 +23 25 04.2   C51 – WISE MPS 334983
2010 03 07.274413 05 23 02.28 +23 25 12.1   C51 – WISE MPS 316770
2010 03 07.406718 05 23 12.94 +23 25 30.7   C51 – WISE MPS 316770
2010 03 07.472933 05 23 17.84 +23 25 42.8   C51 – WISE MPS 316770
2010 03 07.53915 05 23 23.01 +23 25 51.5   C51 – WISE MPS 316770
2010 03 07.605237 05 23 28.18 +23 26 01.6   C51 – WISE MPS 316770
2010 03 07.671453 05 23 33.32 +23 26 11.0   C51 – WISE MPS 316770
2010 03 07.803757 05 23 43.76 +23 26 29.9   C51 – WISE MPS 316770
2010 03 08.06837 05 24 04.64 +23 27 07.9   C51 – WISE MPS 334983
2010 03 08.20067 05 24 15.17 +23 27 24.1   C51 – WISE MPS 316770
2012 10 07.502365 01 18 25.994 +02 28 03.91 20.4 r F51 – Pan-STARRS 1, Haleakala MPS 434907
2012 10 07.513962 01 18 25.291 +02 27 59.66 20.4 r F51 – Pan-STARRS 1, Haleakala MPS 434907
2012 10 07.528512 01 18 24.411 +02 27 54.21 20.3 i F51 – Pan-STARRS 1, Haleakala MPS 434907
2012 10 07.541257 01 18 23.655 +02 27 49.46 20.1 i F51 – Pan-STARRS 1, Haleakala MPS 434907
2012 10 11.421562 01 14 36.739 +02 04 11.18 20.7 g F51 – Pan-STARRS 1, Haleakala MPS 437778
2012 10 11.434073 01 14 35.972 +02 04 06.59 20.7 g F51 – Pan-STARRS 1, Haleakala MPS 437778
2012 10 15.345040 01 10 44.905 +01 41 04.96 20.5 w F51 – Pan-STARRS 1, Haleakala MPS 437778
2012 10 15.363160 01 10 43.796 +01 40 58.93 20.5 w F51 – Pan-STARRS 1, Haleakala MPS 437778
2012 10 15.392374 01 10 41.992 +01 40 48.87 20.6 w F51 – Pan-STARRS 1, Haleakala MPS 437778
2012 11 05.284827 00 52 40.625 +00 10 09.96 21.1 w F51 – Pan-STARRS 1, Haleakala MPS 441515
2012 11 05.299966 00 52 39.995 +00 10 07.62 21.0 w F51 – Pan-STARRS 1, Haleakala MPS 441516
2012 11 05.315045 00 52 39.350 +00 10 05.30 20.9 w F51 – Pan-STARRS 1, Haleakala MPS 441516
2012 11 05.330148 00 52 38.708 +00 10 03.00 20.8 w F51 – Pan-STARRS 1, Haleakala MPS 441516
2014 02 26.46402 13 29 14.62 -03 57 51.8 20.2 V G96 – Mt. Lemmon Survey MPS 503808
2014 02 26.46858 13 29 14.56 -03 57 51.1 20.4 V G96 – Mt. Lemmon Survey MPS 503808
2014 02 26.47315 13 29 14.52 -03 57 50.4 20.6 V G96 – Mt. Lemmon Survey MPS 503808
2014 02 26.47772 13 29 14.49 -03 57 49.2 20.5 V G96 – Mt. Lemmon Survey MPS 503808
2014 02 28.50258 13 28 59.367 -03 51 16.40 20.7 w F51 – Pan-STARRS 1, Haleakala MPS 505238
2014 02 28.51381 13 28 59.225 -03 51 14.05 20.8 w F51 – Pan-STARRS 1, Haleakala MPS 505238
2014 02 28.52504 13 28 59.094 -03 51 11.80 20.8 w F51 – Pan-STARRS 1, Haleakala MPS 505238
2014 02 28.53631 13 28 58.953 -03 51 09.51 20.6 w F51 – Pan-STARRS 1, Haleakala MPS 505238
2014 03 06.16174 13 27 31.95 -03 29 14.5 20.6 R J04 – ESA Optical Ground Station, Tenerife MPS 509629
2014 03 06.17331 13 27 31.70 -03 29 11.3 21.3 R J04 – ESA Optical Ground Station, Tenerife MPS 509629
2014 03 06.18489 13 27 31.41 -03 29 08.3 20.2 R J04 – ESA Optical Ground Station, Tenerife MPS 509629
2014 03 06.19646 13 27 31.14 -03 29 05.4 20.5 R J04 – ESA Optical Ground Station, Tenerife MPS 509629
2014 03 07.45900 13 27 02.84 -03 23 27.1   691 – Steward Observatory, Kitt Peak-Spacewatch MPS 505238
2014 03 07.47668 13 27 02.39 -03 23 22.2   691 – Steward Observatory, Kitt Peak-Spacewatch MPS 505238
2014 03 07.49437 13 27 01.92 -03 23 18.0   691 – Steward Observatory, Kitt Peak-Spacewatch MPS 505238
2014 03 22.35313 13 17 57.89 -02 01 49.5 20.0 V 703 – Catalina Sky Survey MPS 508347
2014 03 22.35830 13 17 57.63 -02 01 48.5 19.6 V 703 – Catalina Sky Survey MPS 508347
2014 03 22.36348 13 17 57.49 -02 01 47.8 21.0 V 703 – Catalina Sky Survey MPS 508347
